Orbital Elements at Epoch 2459000.5 (2020-May-31.0) TDB
Reference: JPL 28 (heliocentric ecliptic J2000)
Element | Value | Uncertainty (1-sigma) | Units |
e | .05957756105241466 | 3.8632e-08 | |
a | 3.221487592811232 | 1.8902e-08 | au |
q | 3.029559219070924 | 1.2253e-07 | au |
i | 2.562938504487847 | 3.5949e-06 | deg |
node | 284.1539694505735 | 0.00010145 | deg |
peri | 121.8100871641452 | 0.00010704 | deg |
M | 153.3514106972675 | 3.4783e-05 | deg |
tp | 2458100.860747300342 (2017-Dec-13.36074730) | 0.00020208 | TDB |
period | 2111.947516487032 5.78 | 1.8588e-05 5.089e-08 | d yr |
n | .1704587813805223 | 1.5003e-09 | deg/d |
Q | 3.41341596655154 | 2.0028e-08 | au |
|
| | Orbit Determination Parameters
Additional Information
|